VK2XSE Weather Reports


Display with metric or nautical units.
time (UTC)temp
F
wind
direction
speed
MPH
gust
MPH
rain 1hr
in
rain 24hr
in
rain mn
in
humidity
%
barometer
mb
20260508161518 49 270 1.0 2.0 0.00 0.00 0.00 88 1025.4
20260508160518 49 0.0 2.0 0.00 0.00 0.00 88 1025.4
20260508155518 49 270 1.0 2.0 0.00 0.00 0.00 88 1025.4
20260508154518 49 270 2.0 2.0 0.00 0.00 0.00 88 1025.4
20260508153518 49 270 2.0 3.0 0.00 0.00 0.00 87 1025.3
20260508152517 49 270 2.0 4.0 0.00 0.00 0.00 87 1025.2
20260508151518 50 270 1.0 3.0 0.00 0.00 0.00 87 1025.2
20260508150517 50 270 2.0 4.0 0.00 0.00 0.00 87 1025.2
20260508145517 50 270 2.0 3.0 0.00 0.00 0.00 86 1025.3
20260508144517 50 270 1.0 2.0 0.00 0.00 0.00 86 1025.2
20260508143517 50 270 2.0 3.0 0.00 0.00 0.00 86 1025.1
20260508142517 50 270 2.0 5.0 0.00 0.00 0.00 86 1025.1
20260508141517 50 270 2.0 4.0 0.00 0.00 0.00 86 1024.8
20260508140517 50 270 2.0 4.0 0.00 0.00 0.00 86 1024.8
20260508135517 50 270 3.0 6.0 0.00 0.00 0.00 86 1024.8
20260508134517 50 270 2.0 3.0 0.00 0.00 0.00 86 1024.9
20260508133517 50 270 3.0 4.0 0.00 0.00 0.00 85 1024.9
20260508132517 49 270 3.0 4.0 0.00 0.00 0.00 85 1025.1
20260508131517 49 270 1.0 2.0 0.00 0.00 0.00 84 1025.2
20260508130517 50 270 2.0 3.0 0.00 0.00 0.00 83 1025.2
20260508125517 50 270 1.0 2.0 0.00 0.00 0.00 83 1025.3
20260508124517 50 270 2.0 4.0 0.00 0.00 0.00 83 1025.3
20260508123517 50 270 1.0 2.0 0.00 0.00 0.00 83 1025.3
20260508122517 50 270 1.0 2.0 0.00 0.00 0.00 83 1025.4
20260508121517 50 0.0 2.0 0.00 0.00 0.00 82 1025.5
20260508120517 50 270 1.0 1.0 0.00 0.00 0.00 82 1025.4
20260508115517 51 0.0 1.0 0.00 0.00 0.00 81 1025.3
20260508114517 51 0.0 2.0 0.00 0.00 0.00 80 1025.3
20260508113517 52 0.0 2.0 0.00 0.00 0.00 80 1025.1
20260508112517 52 0.0 2.0 0.00 0.00 0.00 79 1025.1
20260508111517 53 0.0 1.0 0.00 0.00 0.00 78 1025.1
20260508110517 52 270 1.0 2.0 0.00 0.00 0.00 79 1024.9
20260508105517 52 270 1.0 3.0 0.00 0.00 0.00 79 1024.8
20260508104517 53 270 1.0 3.0 0.00 0.00 0.00 78 1024.8
20260508103516 54 0.0 1.0 0.00 0.00 0.00 76 1024.8
20260508102516 54 270 4.0 6.0 0.00 0.00 0.00 75 1024.7
20260508101516 54 270 3.0 3.0 0.00 0.00 0.00 75 1024.8
20260508100517 55 270 2.0 4.0 0.00 0.00 0.00 74 1024.7
20260508095516 55 270 3.0 4.0 0.00 0.00 0.00 73 1024.6
20260508094516 55 270 3.0 3.0 0.00 0.00 0.00 73 1024.6
20260508093516 55 270 3.0 4.0 0.00 0.00 0.00 73 1024.5
20260508092516 55 270 1.0 2.0 0.00 0.00 0.00 72 1024.5
20260508091516 56 270 1.0 2.0 0.00 0.00 0.00 72 1024.5
20260508090516 57 0.0 2.0 0.00 0.00 0.00 70 1024.4
20260508085518 57 270 2.0 3.0 0.00 0.00 0.00 69 1024.4
20260508084518 58 270 2.0 2.0 0.00 0.00 0.00 68 1024.3
20260508083518 58 270 2.0 3.0 0.00 0.00 0.00 67 1024.2
20260508082518 58 270 2.0 3.0 0.00 0.00 0.00 67 1024.2
20260508081518 59 270 2.0 3.0 0.00 0.00 0.00 67 1024.1
20260508080518 59 270 1.0 3.0 0.00 0.00 0.00 66 1024.1
20260508075518 59 270 1.0 2.0 0.00 0.00 0.00 66 1024.0
20260508074518 59 270 1.0 3.0 0.00 0.00 0.00 66 1023.8
20260508073518 59 270 1.0 3.0 0.00 0.00 0.00 66 1023.7
20260508072518 59 270 1.0 2.0 0.00 0.00 0.00 66 1023.6
20260508071518 60 270 1.0 2.0 0.00 0.00 0.00 64 1023.5
20260508070518 61 270 1.0 6.0 0.00 0.00 0.00 63 1023.5
20260508065518 61 248 2.0 4.0 0.00 0.00 0.00 61 1023.6
20260508064518 62 248 2.0 3.0 0.00 0.00 0.00 60 1023.6
20260508063518 62 270 1.0 3.0 0.00 0.00 0.00 60 1023.6
20260508062518 62 248 2.0 3.0 0.00 0.00 0.00 60 1023.4
20260508061518 62 248 2.0 7.0 0.00 0.00 0.00 60 1023.3
20260508060518 62 248 4.0 8.0 0.00 0.00 0.00 59 1023.4
20260508055518 62 248 2.0 4.0 0.00 0.00 0.00 60 1023.4
20260508054518 63 270 2.0 4.0 0.00 0.00 0.00 60 1023.4
20260508053518 63 248 4.0 11.0 0.00 0.00 0.00 59 1023.4
20260508052518 62 248 3.0 8.0 0.00 0.00 0.00 62 1023.3
20260508051518 62 248 2.0 4.0 0.00 0.00 0.00 64 1023.3
20260508050518 62 248 3.0 6.0 0.00 0.00 0.00 64 1023.4
20260508045518 62 248 3.0 10.0 0.00 0.00 0.00 65 1023.3
20260508044518 62 248 3.0 8.0 0.00 0.00 0.00 63 1023.4
20260508043518 62 248 3.0 7.0 0.00 0.00 0.00 64 1023.4
20260508042518 62 248 3.0 7.0 0.00 0.00 0.00 64 1023.4
20260508041517 62 248 4.0 8.0 0.00 0.00 0.00 65 1023.3
20260508040518 62 248 3.0 8.0 0.00 0.00 0.00 67 1023.3
20260508035518 61 248 4.0 12.0 0.00 0.00 0.00 66 1023.3
20260508034518 61 248 6.0 12.0 0.00 0.00 0.00 66 1023.4
20260508033517 61 248 6.0 14.0 0.00 0.00 0.00 67 1023.4
20260508032517 61 248 5.0 12.0 0.00 0.00 0.00 68 1023.5
20260508031517 61 270 4.0 11.0 0.00 0.00 0.00 68 1023.5
20260508030517 60 270 7.0 12.0 0.00 0.00 0.00 69 1023.7
20260508025517 60 248 6.0 10.0 0.00 0.00 0.00 68 1023.7
20260508024517 60 270 5.0 10.0 0.00 0.00 0.00 70 1023.8
20260508023517 60 270 6.0 12.0 0.00 0.00 0.00 70 1024.0
20260508022517 60 270 5.0 10.0 0.00 0.00 0.00 70 1024.2
20260508021517 60 270 5.0 10.0 0.00 0.00 0.00 69 1024.3
20260508020517 60 270 8.0 15.0 0.00 0.00 0.00 70 1024.5
20260508015517 59 248 4.0 11.0 0.00 0.00 0.00 70 1024.6
20260508014517 59 270 5.0 11.0 0.00 0.00 0.00 72 1024.8
20260508013517 59 248 5.0 11.0 0.00 0.00 0.00 72 1024.9
20260508012517 58 248 4.0 14.0 0.00 0.00 0.00 73 1024.9
20260508011517 58 270 7.0 14.0 0.00 0.00 0.00 73 1025.0
20260508010517 57 270 7.0 13.0 0.00 0.00 0.00 74 1025.1
20260508005517 57 270 6.0 14.0 0.00 0.00 0.00 75 1025.4
20260508004517 57 270 7.0 14.0 0.00 0.00 0.00 74 1025.3
20260508003517 57 270 6.0 15.0 0.00 0.00 0.00 74 1025.3
20260508002517 57 248 8.0 15.0 0.00 0.00 0.00 74 1025.3
20260508001517 56 270 7.0 12.0 0.00 0.00 0.00 75 1025.4
20260508000517 56 270 6.0 12.0 0.00 0.00 0.00 76 1025.3
20260507235517 55 270 6.0 13.0 0.00 0.00 0.00 78 1025.3
20260507234517 55 270 8.0 14.0 0.00 0.00 0.00 78 1025.3
20260507233517 54 270 6.0 12.0 0.00 0.00 0.00 80 1025.4
20260507232517 53 270 5.0 10.0 0.00 0.00 0.00 81 1025.3
20260507231517 53 270 8.0 16.0 0.00 0.00 0.00 81 1025.4
20260507230517 52 270 8.0 14.0 0.00 0.00 0.00 82 1025.4
20260507225517 51 270 6.0 12.0 0.00 0.00 0.00 83 1025.4
20260507224517 50 270 5.0 11.0 0.00 0.00 0.00 84 1025.4
20260507223517 49 270 6.0 12.0 0.00 0.00 0.00 84 1025.4
20260507222517 49 270 5.0 10.0 0.00 0.00 0.00 84 1025.5
20260507221517 49 270 6.0 11.0 0.00 0.00 0.00 84 1025.6
20260507220517 49 270 5.0 9.0 0.00 0.00 0.00 83 1025.6
20260507215517 48 270 6.0 11.0 0.00 0.00 0.00 83 1025.5
20260507214517 48 270 5.0 9.0 0.00 0.00 0.00 83 1025.6
20260507213517 48 270 4.0 8.0 0.00 0.00 0.00 83 1025.6
20260507212517 48 270 4.0 9.0 0.00 0.00 0.00 83 1025.4
20260507211517 48 270 5.0 9.0 0.00 0.00 0.00 83 1025.4
20260507210516 48 270 5.0 9.0 0.00 0.00 0.00 84 1025.2
20260507205517 47 270 3.0 7.0 0.00 0.00 0.00 84 1025.0
20260507204517 47 270 4.0 6.0 0.00 0.00 0.00 84 1024.9
20260507203517 47 270 2.0 4.0 0.00 0.00 0.00 84 1024.9
20260507202517 47 270 1.0 3.0 0.00 0.00 0.00 83 1024.7
20260507201516 47 270 1.0 3.0 0.00 0.00 0.00 83 1024.7
20260507200516 47 315 1.0 3.0 0.00 0.00 0.00 83 1024.6
20260507195516 47 315 1.0 4.0 0.00 0.00 0.00 83 1024.6
20260507194517 47 293 1.0 2.0 0.00 0.00 0.00 83 1024.7
20260507193516 47 293 1.0 3.0 0.00 0.00 0.00 83 1024.7
20260507192516 47 293 1.0 3.0 0.00 0.00 0.00 83 1024.6
20260507191516 46 315 1.0 3.0 0.00 0.00 0.00 82 1024.5
20260507190518 46 315 1.0 3.0 0.00 0.00 0.00 82 1024.5
20260507185518 46 293 1.0 2.0 0.00 0.00 0.00 82 1024.6
20260507184518 46 293 1.0 2.0 0.00 0.00 0.00 82 1024.6
20260507183518 46 315 1.0 2.0 0.00 0.00 0.00 81 1024.6
20260507182518 46 0.0 1.0 0.00 0.00 0.00 81 1024.5
20260507181518 46 270 1.0 3.0 0.00 0.00 0.00 80 1024.5
20260507180518 46 270 3.0 6.0 0.00 0.00 0.00 80 1024.5
20260507175518 46 270 3.0 7.0 0.00 0.00 0.00 80 1024.4
20260507174518 45 270 3.0 7.0 0.00 0.00 0.00 80 1024.4
20260507173518 45 270 3.0 7.0 0.00 0.00 0.00 80 1024.4
20260507172518 45 270 3.0 6.0 0.00 0.00 0.00 81 1024.4
20260507171518 44 270 3.0 6.0 0.00 0.00 0.00 81 1024.5
20260507170518 44 270 3.0 6.0 0.00 0.00 0.00 81 1024.5
20260507165518 44 270 2.0 4.0 0.00 0.00 0.00 81 1024.5
20260507164518 44 270 3.0 6.0 0.00 0.00 0.00 80 1024.6
20260507163518 44 270 3.0 4.0 0.00 0.00 0.00 80 1024.5
20260507162518 44 270 2.0 4.0 0.00 0.00 0.00 80 1024.7